Location: STAR School
(35.3054°N, 111.2976°W)
Time: 01:25:00
(UTC-07:00)

Vanguard 1 - Pass Details

Date: 25 October 2019
Orbit: 652 x 3831 km, 34.2° (Epoch: 13 November)

Event Time Altitude Azimuth Distance (km) Brightness Sun altitude
Exits shadow 02:49:18 11° 188° (S) 6,856 14.1 -47.1°
Drops below altitude 10° 02:50:00 10° 187° (S) 6,924 14.1 -46.9°
Sets 02:58:22 0° 171° (S) 7,823 14.6 -45.4°
